Location: Chuathbaluk
(61.5726°N, 159.2454°W)
Time: 12:25:45
(UTC+00:00)

N. Korean satellite - Pass Details

Date: 01 November 2020
Orbit: 453 x 503 km, 97.2° (Epoch: 04 December)

Event Time Altitude Azimuth Distance (km) Brightness Sun altitude
Rises 17:15:30 0° 13° (NNE) 2,492 10.1 -6.6°
Reaches altitude 10° 17:17:37 10° 6° (N) 1,610 9.1 -6.3°
Maximum altitude 17:20:53 41° 295° (WNW) 673 6.8 -6.0°
Drops below altitude 10° 17:24:07 10° 224° (SW) 1,597 9.0 -5.6°
Sets 17:26:12 0° 217° (SW) 2,468 10.0 -5.4°
